Location: Zagreb
(45.8000°N, 16.0000°E)
Time: 03:00:52
(UTC+01:00)

S-56A Canister/Altair - Pass Details

Date: 10 October 2020
Orbit: 633 x 2499 km, 38.9° (Epoch: 25 October)

Event Time Altitude Azimuth Distance (km) Brightness Sun altitude
Rises 19:01:18 0° 283° (WNW) 6,181 14.0 -8.2°
Reaches altitude 10° 19:06:49 10° 270° (W) 5,136 13.4 -9.2°
Maximum altitude 19:16:18 21° 230° (SW) 4,026 11.8 -10.8°
Drops below altitude 10° 19:24:38 10° 188° (S) 4,423 11.5 -12.3°
Sets 19:28:58 0° 173° (S) 5,118 11.6 -13.1°
